Regional Weather Roundup
Issued by NWS Charleston, SC

Current Version | Previous Version | Graphics & Text | Print | Product List | Glossary On
Versions: 1 2 3 4 5 6 7 8 9 10 11 12 13 14 15 16 17 18 19 20 21 22 23 24 25 26 27 28 29 30 31 32 33 34 35 36 37 38 39 40 41 42 43 44 45 46 47 48 49 50
000
ASUS42 KCHS 171312
RWRCHS

REGIONAL WEATHER ROUNDUP
NATIONAL WEATHER SERVICE CHARLESTON SC
900 AM EDT TUE OCT 17 2017

NOTE: "FAIR" INDICATES FEW OR NO CLOUDS BELOW 12,000 FEET WITH NO
SIGNIFICANT WEATHER AND/OR OBSTRUCTIONS TO VISIBILITY.

NOT ALL STATIONS ARE QUALITY CONTROLLED. USE DATA WITH CAUTION...
ESPECIALLY DEWPOINT OBSERVATIONS.

SCZ027-030-031-034>040-042>050-171400-
...SOUTHEAST SOUTH CAROLINA...

CITY           SKY/WX    TMP DP  RH WIND       PRES   REMARKS
N CHARLESTON   CLOUDY    54  46  74 NE14      30.26R
WATERFRONT PRK NOT AVBL
JOHNS ISLAND   FAIR      57  45  62 N14G21    30.24R
PINOPOLIS        N/A     55  50  82 NE18      30.18R
MONCKS CORNER  FAIR      52  43  71 NE8G16    30.27R
SUMMERVILLE    FAIR      54  45  71 N10G16    30.28R
BEAUFORT MCAS  CLOUDY    57  47  69 NE9       30.25R
BEAUFORT ARPT  FAIR      59  45  58 NE23G31   30.24R
HILTON HEAD IS PTSUNNY   59  45  58 NE14G23   30.23R
WALTERBORO     CLOUDY    54  41  62 NE6G17    30.28R
ALLENDALE      NOT AVBL

...SOUTHERN MIDLANDS AND PEE DEE...

CITY           SKY/WX    TMP DP  RH WIND       PRES   REMARKS
GEORGETOWN     NOT AVBL
KINGSTREE      FAIR      50  43  76 N5        30.30R
ORANGEBURG     MOSUNNY   53  42  66 NE8       30.30R
BARNWELL         N/A     54  45  71 NE9G15    30.30R
AIKEN          FAIR      48  43  81 N5        30.34R
MANNING        DRZL/FOG  50  45  81 MISG      30.30R VSB 1/4
COLUMBIA       MOSUNNY   53  42  66 N7        30.32R
SUMTER         PTSUNNY   53  41  64 NE14      30.29R
FLORENCE       MOSUNNY   51  43  74 N13       30.32R
MYRTLE BEACH   CLOUDY    54  42  64 N15       30.28R
N MYRTLE BEACH CLOUDY    55  42  61 N12       30.27R

$$

GAZ063-065-086>088-099>101-113>116-118-119-134>141-150-171400-
...SOUTHEAST GEORGIA...

CITY           SKY/WX    TMP DP  RH WIND       PRES   REMARKS
SAVANNAH ARPT  CLOUDY    56  49  77 N12       30.25R
HUNTER AAF     PTSUNNY   58  49  73 NE9       30.21R
FORT STEWART   CLOUDY    56  48  73 N8G20     30.22R
STATESBORO     MOSUNNY   53  43  69 NE6       30.27R
SYLVANIA       MOSUNNY   52  47  83 NE8       30.28R
CLAXTON        FAIR      56  47  72 N9        30.26R

...CSRA...CENTRAL AND FAR SOUTHEAST GEORGIA...

CITY           SKY/WX    TMP DP  RH WIND       PRES   REMARKS
THOMSON        SUNNY     54  42  65 E7        30.37R
AUGUSTA-BUSH   MOSUNNY   55  44  66 NE9       30.31R
AUGUSTA-DANIEL SUNNY     52  43  71 N8        30.31R
SWAINSBORO     FAIR      54  45  71 NE8       30.29R
VIDALIA        PTSUNNY   54  46  76 NE7       30.27R
EASTMAN        FAIR      56  36  45 NE9       30.30R
HAZLEHURST     FAIR      55  42  62 NE5       30.24R
ALMA           CLOUDY    57  47  69 VRB3      30.23R
WAYCROSS       CLOUDY    59  47  64 NE10G18   30.22R
JESUP          NOT AVBL
BAXLEY         FAIR      54  46  76 NE8       30.24R
BRUNSWICK      CLOUDY    64  54  68 NE13      30.19R
SAINT SIMONS   CLOUDY    68  60  75 NE18G28   30.17R

$$

SCZ027-028-034-036>038-045-046-048>050-GAZ119-141-171400-
...LAKE AND SUPPLEMENTAL COASTAL OBSERVATIONS...

STATION/POSITION TIME  TEMP    WIND        PRES    WAVE   SWELL
                       AIR SEA DIR/SP/G            HT/PER HT/PER/DIR
                 (UTC) (F)     (DEG/KT/KT) (MB)    (FT/S) (FT/S/D)
WINYAH BAY       NOT AVBL
LAKE MURRAY      1220   49     350/  2/  6 1025.7R
ACE BASIN NERRS  1145   57      20/  5     1023.0
FORT PULASKI     1242   62 77   50/ 18/ 22 1023.5R
SAPELO ISLAND    1200   66      30/ 16     1021.0

$$

ANZ835-935-AMZ111-154-330-350-352-354-370-450-454-472-171400-
...C-MAN AND BUOY OBSERVATIONS...

STATION/POSITION TIME  TEMP    WIND        PRES    WAVE   SWELL
                       AIR SEA DIR/SP/G            HT/PER HT/PER/DIR
                 (UTC) (F)     (DEG/KT/KT) (MB)    (FT/S) (FT/S/D)
BUOY 41004       1250   69 80   30/ 25/ 29 1021.0R   9/ 8   3/ 70/11
BUOY 41008       1150   69 79   50/ 25/ 31 1019.8    8/ 7
FOLLY BEACH CMAN 1200   60      10/ 22/ 27 1023.1R
CAPERS NEARSHORE 1208   59 77   30/ 21/ 31 1021.9R
FRIPP NEARSHORE  1208   64      40/ 23/ 29   N/A


STATION/POSITION TIME  TEMP    WIND        PRES    WAVE   SWELL
                       AIR SEA DIR/SP/G            HT/PER HT/PER/DIR
                 (UTC) (F)     (DEG/KT/KT) (MB)    (FT/S) (FT/S/D)
5E ST. MARYS GA  1230      80                N/A     7/ 7   2/ 90/11
FRYING PAN BUOY  1250   66 77   20/ 23/ 29 1022.0R   9/ 8
BUOY 41025       1250   65 81   20/ 25/ 29 1021.9R   9/ 9   5/ 50/ 9
CAPE LOOKOUT NC  1200   61      10/ 18/ 22 1022.0R
BUOY 41002       1150   76 80   30/ 25/ 29 1015.1    9/ 7   2/110/11
BUOY 41010       NOT AVBL
ST AUGUSTINE FL  1200   75 80   20/ 26/ 29 1018.4R


$$



USA.gov is the U.S. government's official web portal to all federal, state and local government web resources and services.